Regional Weather Roundup
Issued by NWS Cleveland, OH

Home | Current Version | Previous Version | Graphics & Text | Print | Product List | Glossary On
Versions: 1 2 3 4 5 6 7 8 9 10 11 12 13 14 15 16 17 18 19 20 21 22 23 24 25 26 27 28 29 30 31 32 33 34 35 36 37 38 39 40 41 42 43 44 45 46 47 48 49 50
859
ASUS41 KCLE 282202
RWRCLE
OHIO REGIONAL WEATHER ROUNDUP
NATIONAL WEATHER SERVICE CLEVELAND, OH
600 PM EDT SUN AUG 28 2016

NOTE: "FAIR" INDICATES FEW OR NO CLOUDS BELOW 12,000 FEET WITH NO
SIGNIFICANT WEATHER AND/OR OBSTRUCTIONS TO VISIBILITY.

OHZ001>008-015>018-024>027-034-035-043-044-282300-
   NORTHWEST OHIO

CITY           SKY/WX    TMP DP  RH WIND       PRES   REMARKS
DEFIANCE       CLOUDY    79  69  71 NW10      30.19R
FINDLAY        SUNNY     87  65  47 N12       30.16S
TOLEDO EXPRESS MOSUNNY   78  73  84 NW6       30.17S
TOLEDO EXEC    SUNNY     83  71  67 N5        30.17F
LIMA           MOSUNNY   86  75  69 E3        30.17S HX  95
$$

OHZ009>014-019>023-028>033-038-089-282300-
   NORTHEAST OHIO

CITY           SKY/WX    TMP DP  RH WIND       PRES   REMARKS
CLE-HOPKINS    CLOUDY    83  70  64 CALM      30.15F THUNDER
CLE-LAKEFRONT  MOSUNNY   80  75  84 NE5       30.12F
CUY CO. ARPT   PTSUNNY   82  75  78 N7        30.16F
LORAIN-ELYRIA  CLOUDY    73  67  81 W5        30.15F
ASHTABULA      MOSUNNY   82  72  71 NW6       30.16F
AKRON-CANTON   CLOUDY    84  69  60 NW8       30.16S
WOOSTER        TSTM      72  67  84 N12       30.21R
MANSFIELD      SUNNY     82  67  60 N10       30.19R
YOUNGSTOWN     PTSUNNY   84  71  65 NW7       30.16F
$$

OHZ042-051>053-060>062-070>072-077>081-282300-
  SOUTHWEST OHIO

CITY           SKY/WX    TMP DP  RH WIND       PRES   REMARKS
CINC-COVINGTON CLOUDY    91  73  55 N8        30.13F HX  99
CINC-LUNKEN    LGT RAIN N/A N/A N/A N5        30.12F
HAMILTON       SUNNY     91  72  53 N7        30.13F HX  98
DAYTON         PTSUNNY   89  70  53 NW5       30.16F HX  94
WRIGHT-PAT AFB MOSUNNY   89  70  53 NE3       30.14F HX  94
DAYTON GENERAL CLOUDY    90  70  51 W7        30.13F HX  95
WILMINGTON     SUNNY     89  73  59 N7        30.14F HX  97
$$

OHZ036-037-039>041-045>050-054>059-063>069-073>076-082>088-282300-
  CENTRAL AND SOUTHEAST OHIO

CITY           SKY/WX    TMP DP  RH WIND       PRES   REMARKS
COLUMBUS       PTSUNNY   88  70  55 CALM      30.14R HX  93
OSU AIRPORT    MOSUNNY   89  73  59 N9        30.15S HX  97
BOLTON FIELD   SUNNY     88  73  62 W5        30.16S HX  96
RICKENBACK AFB SUNNY     88  72  58 SE3       30.14F HX  94
NEWARK         MOSUNNY   88  72  58 NW5       30.15R HX  94
MARION         SUNNY     88  68  51 N5        30.17S HX  91
LANCASTER      MOSUNNY   90  72  55 N5        30.16R HX  97
ZANESVILLE     SUNNY     89  70  53 NW5       30.15R HX  94
NEW PHILLY     MOSUNNY   92  69  47 SW5       30.15R HX  97
$$




USA.gov is the U.S. government's official web portal to all federal, state and local government web resources and services.